Weather History for Gustavus, AK

Change the Weather History Date:

Thursday, January 16, 2014

  Actual Average Record
Temperature  
Mean Temperature 42 °F -  
Max Temperature 46 °F 35 °F 46 °F (1958)
Min Temperature 37 °F 26 °F -6 °F (1951)
Degree Days  
Heating Degree Days 24    
Moisture  
Dew Point 40 °F    
Average Humidity 84    
Maximum Humidity 93    
Minimum Humidity 76    
Precipitation  
Precipitation 0.00 in - - ()
Sea Level Pressure  
Sea Level Pressure 30.01 in    
Wind  
Wind Speed 12 mph (SE)    
Max Wind Speed 25 mph    
Max Gust Speed 32 mph    
Visibility 9 miles    
Events      
Averages and records for this station are not official NWS values.
T = Trace of Precipitation, MM = Missing Value Source: NWS Daily Summary

Daily Weather History Graph

Daily Weather History Graph

Search for Another Location

Airport:

Trip Planner

Search our weather history database for the weather conditions in past years. The results will help you decide how hot, cold, wet, or windy it might be!

Date:

Astronomy

Jan. 16, 2014 Rise Set
Actual Time 8:37 AM AKST 3:48 PM AKST
Civil Twilight 7:48 AM AKST 4:37 PM AKST
Nautical Twilight 6:57 AM AKST 5:28 PM AKST
Astronomical Twilight 6:10 AM AKST 6:16 PM AKST
Moon 5:13 PM AKST (1/16) 8:12 AM AKST (1/16)
Length of Visible Light 8h 48m
Length of Day
7h 11m
Full, 100% of the Moon is Illuminated
Jan 16
Full
Jan 23
Last Quarter
Jan 30
New
Feb 6
First Quarter
Feb 14
Full

Hourly Weather History & Observations

Time (AKST) Temp. Windchill Dew Point Humidity Pressure Visibility Wind Dir Wind Speed Gust Speed Precip Events Conditions
12:16 AM 42.8 °F 40.1 °F 37.4 °F 81% 30.09 in 10.0 mi ENE 4.6 mph - N/A   Overcast
12:36 AM 41.0 °F 38.0 °F 37.4 °F 87% 30.09 in 10.0 mi ENE 4.6 mph - N/A   Overcast
12:56 AM 41.0 °F 39.0 °F 37.4 °F 87% 30.09 in 10.0 mi ENE 3.5 mph - N/A   Overcast
1:16 AM 41.0 °F - 37.4 °F 87% 30.08 in 10.0 mi Calm Calm - N/A   Overcast
1:36 AM 39.2 °F 35.9 °F 37.4 °F 93% 30.08 in 10.0 mi NNE 4.6 mph - N/A   Overcast
1:56 AM 39.2 °F - 37.4 °F 93% 30.08 in 10.0 mi Calm Calm - N/A   Overcast
2:16 AM 37.4 °F - 35.6 °F 93% 30.07 in 10.0 mi Calm Calm - N/A   Overcast
2:36 AM 39.2 °F - 37.4 °F 93% 30.06 in 10.0 mi Calm Calm - N/A   Overcast
2:56 AM 42.8 °F 40.1 °F 37.4 °F 81% 30.07 in 10.0 mi SSE 4.6 mph - N/A   Overcast
3:16 AM 44.6 °F 38.1 °F 37.4 °F 76% 30.05 in 10.0 mi SSE 13.8 mph 19.6 mph N/A   Overcast
3:36 AM 44.6 °F 39.2 °F 37.4 °F 76% 30.05 in 10.0 mi SSE 10.4 mph - N/A   Overcast
3:56 AM 44.6 °F 38.8 °F 39.2 °F 81% 30.04 in 10.0 mi SSE 11.5 mph 19.6 mph N/A   Overcast
4:16 AM 44.6 °F 38.8 °F 37.4 °F 76% 30.04 in 10.0 mi SSE 11.5 mph 20.7 mph N/A   Overcast
4:36 AM 44.6 °F 38.4 °F 39.2 °F 81% 30.02 in 10.0 mi SE 12.7 mph 20.7 mph N/A   Overcast
4:56 AM 44.6 °F 36.6 °F 39.2 °F 81% 30.02 in 10.0 mi SSE 19.6 mph 27.6 mph N/A   Overcast
5:16 AM 44.6 °F 36.9 °F 39.2 °F 81% 30.01 in 10.0 mi SE 18.4 mph 24.2 mph N/A   Overcast
5:36 AM 44.6 °F 37.2 °F 39.2 °F 81% 29.98 in 10.0 mi SE 17.3 mph 23.0 mph N/A   Overcast
5:56 AM 44.6 °F 36.9 °F 39.2 °F 81% 30.00 in 10.0 mi SE 18.4 mph 23.0 mph N/A   Overcast
6:16 AM 46.4 °F 39.2 °F 39.2 °F 76% 29.98 in 10.0 mi SE 18.4 mph 23.0 mph N/A   Overcast
6:36 AM 44.6 °F 36.1 °F 39.2 °F 81% 29.94 in 10.0 mi SE 21.9 mph 26.5 mph N/A   Overcast
6:56 AM 44.6 °F 35.9 °F 39.2 °F 81% 29.92 in 10.0 mi SE 23.0 mph 27.6 mph N/A   Overcast
7:16 AM 46.4 °F 38.5 °F 39.2 °F 76% 29.94 in 10.0 mi SE 21.9 mph 27.6 mph N/A   Overcast
7:36 AM 46.4 °F 39.5 °F 39.2 °F 76% 29.93 in 10.0 mi SE 17.3 mph 27.6 mph N/A   Overcast
7:56 AM 44.6 °F 36.9 °F 41.0 °F 87% 29.92 in 10.0 mi SE 18.4 mph 24.2 mph N/A   Overcast
8:16 AM 44.6 °F 37.2 °F 41.0 °F 87% 29.94 in 10.0 mi SSE 17.3 mph 21.9 mph N/A   Overcast
8:36 AM 44.6 °F 37.8 °F 41.0 °F 87% 29.93 in 10.0 mi SE 15.0 mph 24.2 mph N/A   Overcast
8:56 AM 44.6 °F 37.2 °F 39.2 °F 81% 29.93 in 10.0 mi SE 17.3 mph 25.3 mph N/A   Overcast
9:16 AM 44.6 °F 37.2 °F 39.2 °F 81% 29.93 in 10.0 mi SE 17.3 mph 25.3 mph N/A   Overcast
9:36 AM 44.6 °F 37.2 °F 39.2 °F 81% 29.94 in 6.0 mi SE 17.3 mph 24.2 mph N/A   Overcast
9:56 AM 44.6 °F 36.9 °F 39.2 °F 81% 29.94 in 10.0 mi SE 18.4 mph 21.9 mph N/A   Overcast
10:16 AM 44.6 °F 36.6 °F 39.2 °F 81% 29.93 in 10.0 mi SE 19.6 mph 24.2 mph N/A   Overcast
10:36 AM 44.6 °F 36.4 °F 41.0 °F 87% 29.92 in 9.0 mi SE 20.7 mph 27.6 mph N/A   Overcast
10:56 AM 44.6 °F 36.6 °F 41.0 °F 87% 29.92 in 10.0 mi SE 19.6 mph 27.6 mph N/A   Overcast
11:16 AM 44.6 °F 35.9 °F 41.0 °F 87% 29.92 in 10.0 mi SE 23.0 mph 32.2 mph N/A   Overcast
11:36 AM 44.6 °F 36.4 °F 41.0 °F 87% 29.92 in 7.0 mi SE 20.7 mph 26.5 mph N/A   Overcast
11:56 AM 44.6 °F 35.9 °F 41.0 °F 87% 29.92 in 5.0 mi SE 23.0 mph 31.1 mph N/A   Overcast
12:16 PM 44.6 °F 36.1 °F 41.0 °F 87% 29.93 in 5.0 mi SE 21.9 mph 27.6 mph N/A   Overcast
12:36 PM 44.6 °F 35.5 °F 41.0 °F 87% 29.93 in 5.0 mi SE 25.3 mph 31.1 mph N/A   Overcast
12:56 PM 44.6 °F 36.4 °F 41.0 °F 87% 29.94 in 5.0 mi SE 20.7 mph 28.8 mph N/A   Overcast
1:16 PM 44.6 °F 35.9 °F 41.0 °F 87% 29.95 in 5.0 mi SE 23.0 mph 31.1 mph N/A   Overcast
1:36 PM 44.6 °F 36.1 °F 41.0 °F 87% 29.96 in 5.0 mi SE 21.9 mph 26.5 mph N/A   Overcast
1:56 PM 44.6 °F 37.4 °F 41.0 °F 87% 29.97 in 9.0 mi SE 16.1 mph 24.2 mph N/A   Overcast
2:16 PM 44.6 °F 37.2 °F 41.0 °F 87% 29.98 in 8.0 mi SE 17.3 mph 26.5 mph N/A   Overcast
2:36 PM 44.6 °F 37.2 °F 41.0 °F 87% 29.98 in 5.0 mi SE 17.3 mph 24.2 mph N/A   Overcast
2:56 PM 44.6 °F 37.8 °F 41.0 °F 87% 29.99 in 6.0 mi SE 15.0 mph - N/A   Overcast
3:16 PM 44.6 °F 37.4 °F 41.0 °F 87% 29.98 in 5.0 mi SE 16.1 mph - N/A   Overcast
3:36 PM 44.6 °F 37.2 °F 41.0 °F 87% 29.99 in 9.0 mi SE 17.3 mph 23.0 mph N/A   Overcast
3:56 PM 44.6 °F 36.9 °F 41.0 °F 87% 29.99 in 10.0 mi SE 18.4 mph 28.8 mph N/A   Overcast
4:16 PM 44.6 °F 36.6 °F 41.0 °F 87% 30.00 in 10.0 mi SE 19.6 mph 26.5 mph N/A   Overcast
4:36 PM 44.6 °F 37.4 °F 41.0 °F 87% 30.02 in 10.0 mi SE 16.1 mph - N/A   Overcast
4:56 PM 44.6 °F 36.6 °F 39.2 °F 81% 30.02 in 10.0 mi SE 19.6 mph 24.2 mph N/A   Overcast
5:16 PM 44.6 °F 37.2 °F 39.2 °F 81% 30.02 in 10.0 mi SE 17.3 mph - N/A   Overcast
5:36 PM 44.6 °F 37.2 °F 41.0 °F 87% 30.02 in 10.0 mi SE 17.3 mph 21.9 mph N/A   Overcast
5:56 PM 44.6 °F 37.2 °F 41.0 °F 87% 30.03 in 10.0 mi SE 17.3 mph 25.3 mph N/A   Overcast
6:16 PM 44.6 °F 37.4 °F 41.0 °F 87% 30.04 in 10.0 mi SE 16.1 mph - N/A   Overcast
6:36 PM 44.6 °F 37.2 °F 41.0 °F 87% 30.04 in 10.0 mi SE 17.3 mph 21.9 mph N/A   Overcast
6:56 PM 44.6 °F 36.9 °F 41.0 °F 87% 30.05 in 10.0 mi SE 18.4 mph 23.0 mph N/A   Overcast
7:16 PM 44.6 °F 37.4 °F 41.0 °F 87% 30.07 in 10.0 mi SE 16.1 mph 21.9 mph N/A   Overcast
7:36 PM 44.6 °F 36.9 °F 41.0 °F 87% 30.07 in 10.0 mi SE 18.4 mph 24.2 mph N/A   Overcast
7:56 PM 44.6 °F 38.1 °F 41.0 °F 87% 30.08 in 10.0 mi SE 13.8 mph - N/A   Overcast
8:16 PM 44.6 °F 38.1 °F 41.0 °F 87% 30.08 in 10.0 mi SE 13.8 mph 20.7 mph N/A   Overcast
8:36 PM 44.6 °F 37.8 °F 41.0 °F 87% 30.08 in 10.0 mi SE 15.0 mph 24.2 mph N/A   Overcast
8:56 PM 46.4 °F 39.2 °F 41.0 °F 81% 30.09 in 10.0 mi SE 18.4 mph 23.0 mph N/A   Overcast
9:16 PM 46.4 °F 39.2 °F 39.2 °F 76% 30.10 in 10.0 mi SE 18.4 mph 25.3 mph N/A   Overcast
9:36 PM 46.4 °F 40.1 °F 41.0 °F 81% 30.11 in 10.0 mi SE 15.0 mph 23.0 mph N/A   Overcast
9:56 PM 46.4 °F 39.5 °F 39.2 °F 76% 30.11 in 10.0 mi SE 17.3 mph 23.0 mph N/A   Overcast
10:16 PM 44.6 °F 38.4 °F 39.2 °F 81% 30.11 in 10.0 mi SE 12.7 mph - N/A   Overcast
10:36 PM 44.6 °F 39.2 °F 39.2 °F 81% 30.12 in 10.0 mi SE 10.4 mph - N/A   Overcast
10:56 PM 44.6 °F 38.8 °F 39.2 °F 81% 30.12 in 10.0 mi SE 11.5 mph - N/A   Overcast
11:16 PM 44.6 °F 40.2 °F 39.2 °F 81% 30.12 in 10.0 mi SE 8.1 mph - N/A   Overcast
11:36 PM 46.4 °F 41.9 °F 39.2 °F 76% 30.12 in 10.0 mi SE 9.2 mph - N/A   Overcast
11:56 PM 44.6 °F 39.2 °F 39.2 °F 81% 30.11 in 10.0 mi SE 10.4 mph - N/A   Overcast